Flag for U.S.A. Weather past 2 weeks in Wainwright, Alaska, U.S.A.

Now
45 °F

Sunny.


Feels Like: 39 °F
Forecast: 43 / 52 °F
Wind: 13 mph from East

Location: Wainwright Distant Early Warning

Current Time: Jul 30, 2014 at 6:00:36 AM

Latest Report: Jul 30, 2014 at 4:53 AM


Visibility: 10 mi

Pressure: 30.23 "Hg

Humidity: 90%

Dew point: 42 °F

Location of WainwrightLocation

Historic Weather in Wainwright — Graph

°F

Wainwright temperature yesterday

Maximum temperature yesterday: 53 °F (at 6:53 PM)
Minimum temperature yesterday: 37 °F (at 1:53 AM)
Average temperature yesterday: 44 °F

Past Weeks' High & Low Weather Summary

 TemperatureHumidityPressure
High59 °F (Jul 16, 12:53 PM)100% (Jul 15, 6:04 AM)30.37 "Hg (Jul 15, 6:04 AM)
Low32 °F (Jul 15, 4:53 AM)50% (Jul 29, 7:53 PM)29.35 "Hg (Jul 21, 5:53 AM)
Average41 °F83%29.84 "Hg
* Reported Jul 15 4:53 AM — Jul 30 4:53 AM, Wainwright, Weather by CustomWeather, © 2014

Note: Actual official high and low records may vary slightly from our data, if they occured in-between our weather recording intervals... More about our weather records

Advertising

Wainwright weather history for previous 24 hours

 ConditionsComfort  
Time TempWeatherWind HumidityBarometerVisibility
4:53 AM
Jul 30
45 °FSunny.13 mph90%30.23 "Hg10 mi
3:53 AM45 °FSunny.12 mph86%30.24 "Hg10 mi
2:53 AM45 °FSunny.10 mph86%30.26 "Hg10 mi
1:53 AM42 °FSunny.9 mph85%30.27 "Hg10 mi
12:53 AM42 °FSunny.10 mph85%30.27 "Hg10 mi
11:53 PM
Jul 29
45 °FSunny.8 mph76%30.28 "Hg10 mi
10:53 PM49 °FSunny.12 mph64%30.28 "Hg10 mi
9:53 PM51 °FSunny.8 mph61%30.29 "Hg10 mi
8:53 PM51 °FSunny.14 mph59%30.29 "Hg10 mi
7:53 PM52 °FSunny.14 mph50%30.31 "Hg10 mi
6:53 PM53 °FSunny.8 mph61%30.32 "Hg6 mi
5:53 PM52 °FSunny.9 mph61%30.32 "Hg9 mi
4:53 PM49 °FSunny.12 mph61%30.34 "Hg10 mi
3:53 PM51 °FSunny.10 mph59%30.34 "Hg9 mi
2:53 PM49 °FSunny.9 mph61%30.35 "Hg9 mi
12:53 PM44 °FSunny.10 mph68%30.36 "Hg9 mi
11:53 AM46 °FSunny.10 mph63%30.36 "Hg10 mi
10:53 AM42 °FSunny.7 mph65%30.37 "Hg6 mi
9:53 AM44 °FSunny.6 mph60%30.36 "Hg7 mi
8:53 AM41 °FSunny.6 mph74%30.37 "Hg10 mi
7:53 AM39 °FSunny.6 mph82%30.37 "Hg10 mi
6:53 AM38 °FSunny.3 mph90%30.36 "Hg10 mi
Weather by CustomWeather, © 2014

See weather overviewHow to use our weather pages